This is the latest recevied weather packets stored in our database for station/object WD4ITN. If no packets are shown the sender has not sent any weather packets the latest 10 day(s).
| Time | Temp. | Humidity | Pressure | Rain* | Wind** | Luminosity | Snow |
|---|---|---|---|---|---|---|---|
| 1788035000 | 25.56° C | 67% | 1022.6 hPa | 0 mm | - | - | - |
| 1788034698 | 25.56° C | 70% | 1022.5 hPa | 0 mm | - | - | - |
| 1788034395 | 25.56° C | 70% | 1022.5 hPa | 0 mm | - | - | - |
| 1788034119 | 25.56° C | 70% | 1022.5 hPa | 0 mm | - | - | - |
| 1788033820 | 25.56° C | 71% | 1022.5 hPa | 0 mm | - | - | - |
| 1788033510 | 25.56° C | 71% | 1022.7 hPa | 0 mm | - | - | - |
| 1788033208 | 25.56° C | 72% | 1022.8 hPa | 0 mm | - | - | - |
| 1788032905 | 25.56° C | 71% | 1022.8 hPa | 0 mm | - | - | - |
| 1788032596 | 25.56° C | 72% | 1022.9 hPa | 0 mm | - | - | - |
| 1788032293 | 25° C | 75% | 1023.1 hPa | 0 mm | - | - | - |
| 1788032014 | 25° C | 73% | 1023.3 hPa | 0 mm | - | - | - |
| 1788031695 | 25° C | 72% | 1023.5 hPa | 0 mm | - | - | - |
| 1788031414 | 25° C | 72% | 1023.6 hPa | 0 mm | - | - | - |
| 1788031091 | 25° C | 71% | 1023.5 hPa | 0 mm | - | - | - |
| 1788030793 | 25° C | 71% | 1023.6 hPa | 0 mm | - | - | - |
| 1788030513 | 25° C | 72% | 1023.6 hPa | 0 mm | - | - | - |
| 1788030217 | 24.44° C | 76% | 1023.5 hPa | 0 mm | - | - | - |
| 1788029905 | 23.89° C | 75% | 1023.5 hPa | 0 mm | - | - | - |
| 1788029603 | 23.89° C | 73% | 1023.7 hPa | 0 mm | - | - | - |
| 1788029302 | 23.89° C | 74% | 1023.7 hPa | 0 mm | - | - | - |
| 1788029000 | 23.89° C | 74% | 1023.7 hPa | 0 mm | - | - | - |
| 1788028719 | 23.89° C | 75% | 1023.7 hPa | 0 mm | - | - | - |
| 1788028409 | 23.89° C | 73% | 1023.8 hPa | 0 mm | - | - | - |
| 1788028108 | 24.44° C | 74% | 1023.9 hPa | 0 mm | - | - | - |
| 1788027808 | 24.44° C | 74% | 1024 hPa | 0 mm | - | - | - |
* Rain since midnight (hover to see other rain measurements)
** Current wind speed in m/s (hover to see current wind gust speed)